Radiation Dose at Monitoring Post of Fukushima Daini Nuclear Power Station
Date,Time,MP-1(microSv/h),MP-2(microSv/h),MP-3(microSv/h),MP-4(microSv/h),MP-5(microSv/h),MP-6(microSv/h),MP-7(microSv/h),Wind Direction,Wind Velocity(m/s),Rain
2017/07/25,00:00,0.346,0.213,0.353,0.327,0.319,0.173,0.107,southwest,2.8,No
2017/07/25,00:10,0.343,0.212,0.348,0.330,0.315,0.171,0.106,southwest,3.3,No
2017/07/25,00:20,0.346,0.212,0.352,0.327,0.319,0.173,0.106,southwest,3.4,No
2017/07/25,00:30,0.345,0.213,0.352,0.326,0.320,0.172,0.107,southwest,3.8,No
2017/07/25,00:40,0.344,0.212,0.348,0.331,0.315,0.171,0.105,southwest,1.7,No
2017/07/25,00:50,0.347,0.213,0.352,0.328,0.316,0.172,0.106,southwest,2.3,No
2017/07/25,01:00,0.345,0.213,0.352,0.326,0.320,0.171,0.105,southwest,3.3,No
2017/07/25,01:10,0.345,0.212,0.347,0.328,0.317,0.172,0.106,south-southwest,4.4,No
2017/07/25,01:20,0.347,0.213,0.349,0.330,0.315,0.173,0.106,south-southwest,4.9,No
2017/07/25,01:30,0.344,0.213,0.353,0.325,0.318,0.171,0.105,south-southwest,4.7,No
2017/07/25,01:40,0.346,0.211,0.349,0.325,0.319,0.172,0.105,south-southwest,4.0,No
2017/07/25,01:50,0.346,0.212,0.350,0.330,0.314,0.173,0.105,south-southwest,4.1,No
2017/07/25,02:00,0.344,0.210,0.353,0.328,0.315,0.171,0.105,southwest,2.3,No
2017/07/25,02:10,0.348,0.213,0.349,0.325,0.321,0.173,0.106,northwest,1.4,No
2017/07/25,02:20,0.346,0.212,0.350,0.332,0.316,0.173,0.105,north,3.2,No
2017/07/25,02:30,0.344,0.213,0.354,0.329,0.316,0.171,0.105,north-northeast,5.3,Yes
2017/07/25,02:40,0.348,0.214,0.349,0.326,0.319,0.172,0.106,north-northeast,5.3,No
2017/07/25,02:50,0.344,0.212,0.348,0.329,0.319,0.172,0.103,north-northeast,5.6,No
2017/07/25,03:00,0.346,0.211,0.353,0.330,0.315,0.172,0.106,north,4.4,No
2017/07/25,03:10,0.347,0.213,0.350,0.327,0.316,0.171,0.105,north,5.1,No
2017/07/25,03:20,0.343,0.211,0.349,0.326,0.320,0.172,0.105,north,4.8,No
2017/07/25,03:30,0.347,0.212,0.353,0.329,0.317,0.171,0.106,north,4.1,No
2017/07/25,03:40,0.347,0.213,0.351,0.327,0.317,0.172,0.105,north,5.4,No
2017/07/25,03:50,0.344,0.212,0.351,0.327,0.320,0.172,0.105,north,5.4,No
2017/07/25,04:00,0.348,0.213,0.354,0.330,0.317,0.171,0.107,north,6.0,No
2017/07/25,04:10,0.345,0.211,0.351,0.327,0.315,0.172,0.106,north,6.8,No
2017/07/25,04:20,0.346,0.212,0.350,0.327,0.318,0.172,0.106,north,6.8,No
2017/07/25,04:30,0.348,0.214,0.353,0.331,0.316,0.172,0.105,north,6.3,No
2017/07/25,04:40,0.344,0.211,0.350,0.328,0.315,0.171,0.105,north,7.1,No
2017/07/25,04:50,0.346,0.213,0.351,0.328,0.320,0.172,0.105,north,7.3,No
2017/07/25,05:00,0.348,0.214,0.353,0.330,0.317,0.173,0.105,north,7.1,No
2017/07/25,05:10,0.344,0.212,0.351,0.328,0.315,0.172,0.105,north,6.9,No
2017/07/25,05:20,0.344,0.212,0.349,0.326,0.318,0.173,0.105,north-northwest,5.6,No
2017/07/25,05:30,0.348,0.213,0.355,0.330,0.319,0.172,0.106,north-northwest,5.4,No
2017/07/25,05:40,0.346,0.212,0.351,0.329,0.315,0.171,0.105,north-northwest,5.0,No
2017/07/25,05:50,0.344,0.211,0.348,0.327,0.316,0.173,0.105,north,5.6,No
2017/07/25,06:00,0.346,0.214,0.352,0.329,0.319,0.173,0.105,north-northwest,4.7,No
2017/07/25,06:10,0.346,0.213,0.352,0.330,0.316,0.171,0.105,north-northwest,5.0,No
2017/07/25,06:20,0.346,0.211,0.349,0.328,0.313,0.171,0.105,north,4.8,Yes
2017/07/25,06:30,0.344,0.214,0.350,0.327,0.319,0.173,0.106,north-northwest,4.7,No
2017/07/25,06:40,0.349,0.214,0.353,0.330,0.318,0.173,0.106,north,4.6,No
2017/07/25,06:50,0.347,0.212,0.351,0.329,0.317,0.172,0.105,north,4.8,No
2017/07/25,07:00,0.346,0.211,0.350,0.327,0.315,0.172,0.106,north-northwest,3.6,No
2017/07/25,07:10,0.343,0.213,0.351,0.328,0.319,0.173,0.105,north-northwest,2.8,No
2017/07/25,07:20,0.348,0.214,0.353,0.330,0.319,0.171,0.104,north,3.6,No
2017/07/25,07:30,0.347,0.212,0.350,0.330,0.315,0.172,0.106,north,3.1,No
2017/07/25,07:40,0.344,0.212,0.349,0.327,0.315,0.172,0.106,north,3.5,No
2017/07/25,07:50,0.345,0.211,0.349,0.326,0.315,0.173,0.105,north,2.6,No
2017/07/25,08:00,0.348,0.215,0.354,0.328,0.321,0.174,0.106,north-northeast,1.1,No
2017/07/25,08:10,0.347,0.214,0.352,0.331,0.319,0.171,0.105,north-northeast,2.5,No
2017/07/25,08:20,0.345,0.212,0.349,0.329,0.319,0.172,0.105,north,3.6,No
2017/07/25,08:30,0.346,0.211,0.349,0.329,0.318,0.173,0.104,north,4.7,No
2017/07/25,08:40,0.348,0.214,0.352,0.328,0.314,0.172,0.106,north,4.8,No
2017/07/25,08:50,0.346,0.214,0.355,0.328,0.318,0.172,0.105,north,4.4,No
2017/07/25,09:00,0.346,0.212,0.351,0.332,0.320,0.172,0.104,north-northwest,2.6,No
2017/07/25,09:10,0.346,0.212,0.350,0.330,0.319,0.173,0.106,north-northwest,2.2,No
2017/07/25,09:20,0.350,0.211,0.348,0.328,0.316,0.173,0.107,north,2.5,No
2017/07/25,09:30,0.348,0.213,0.354,0.326,0.316,0.171,0.106,north,3.0,No
2017/07/25,09:40,0.346,0.214,0.353,0.329,0.315,0.172,0.104,north,2.1,No
2017/07/25,09:50,0.346,0.213,0.351,0.332,0.317,0.173,0.105,north,1.7,No
2017/07/25,10:00,0.349,0.211,0.349,0.330,0.321,0.173,0.105,north-northeast,1.9,No
2017/07/25,10:10,0.348,0.213,0.354,0.329,0.321,0.172,0.104,north-northeast,1.5,No
2017/07/25,10:20,0.345,0.216,0.355,0.327,0.319,0.172,0.103,north-northeast,1.6,No
2017/07/25,10:30,0.344,0.213,0.352,0.326,0.318,0.172,0.103,north-northeast,2.1,No
2017/07/25,10:40,0.342,0.212,0.351,0.327,0.318,0.173,0.106,north-northeast,2.5,No
2017/07/25,10:50,0.346,0.213,0.350,0.327,0.317,0.174,0.106,north-northeast,1.9,No
2017/07/25,11:00,0.349,0.212,0.350,0.327,0.318,0.172,0.105,north-northeast,2.0,No
2017/07/25,11:10,0.350,0.212,0.349,0.326,0.316,0.172,0.104,north-northeast,2.4,No
2017/07/25,11:20,0.349,0.211,0.350,0.333,0.317,0.174,0.105,north,3.1,No
2017/07/25,11:30,0.346,0.212,0.354,0.334,0.317,0.174,0.105,north-northeast,3.0,No
2017/07/25,11:40,0.346,0.211,0.353,0.331,0.317,0.173,0.106,north-northeast,3.0,No
2017/07/25,11:50,0.348,0.211,0.354,0.330,0.318,0.172,0.107,north-northeast,3.2,No
2017/07/25,12:00,0.350,0.212,0.351,0.329,0.317,0.174,0.107,north-northeast,3.6,No
2017/07/25,12:10,0.348,0.214,0.350,0.328,0.316,0.174,0.106,north-northeast,4.7,No
2017/07/25,12:20,0.347,0.214,0.349,0.328,0.317,0.174,0.106,north-northeast,5.8,No
2017/07/25,12:30,0.345,0.214,0.351,0.329,0.318,0.174,0.106,north-northeast,6.1,No
2017/07/25,12:40,0.344,0.213,0.354,0.333,0.318,0.174,0.107,north-northeast,6.0,No
2017/07/25,12:50,0.353,0.212,0.354,0.332,0.320,0.173,0.106,north,8.2,No
2017/07/25,13:00,0.351,0.214,0.353,0.331,0.325,0.173,0.107,north-northeast,4.2,No
2017/07/25,13:10,0.346,0.215,0.350,0.330,0.322,0.174,0.106,north-northeast,6.4,No
2017/07/25,13:20,0.348,0.214,0.354,0.330,0.320,0.175,0.105,north,5.0,No
2017/07/25,13:30,0.352,0.213,0.357,0.334,0.318,0.175,0.105,north,5.0,No
2017/07/25,13:40,0.350,0.214,0.352,0.333,0.322,0.174,0.107,north,4.1,No
2017/07/25,13:50,0.347,0.215,0.351,0.329,0.322,0.174,0.106,north,3.1,No
2017/07/25,14:00,0.346,0.214,0.351,0.328,0.319,0.174,0.105,north,2.4,No
2017/07/25,14:10,0.351,0.214,0.357,0.332,0.318,0.173,0.105,north,2.6,No
2017/07/25,14:20,0.350,0.214,0.355,0.334,0.316,0.174,0.106,north-northwest,2.5,No
2017/07/25,14:30,0.346,0.216,0.352,0.331,0.316,0.174,0.104,north,2.7,No
2017/07/25,14:40,0.345,0.215,0.350,0.329,0.324,0.174,0.106,north,2.8,No
2017/07/25,14:50,0.352,0.213,0.354,0.329,0.321,0.173,0.106,north,2.0,Yes
2017/07/25,15:00,0.349,0.215,0.357,0.333,0.320,0.173,0.107,north-northeast,2.5,Yes
2017/07/25,15:10,0.348,0.216,0.355,0.335,0.318,0.174,0.107,north-northeast,2.9,No
2017/07/25,15:20,0.349,0.214,0.352,0.332,0.317,0.174,0.107,north-northeast,2.4,No
2017/07/25,15:30,0.351,0.214,0.355,0.329,0.322,0.175,0.107,north-northeast,3.1,No
2017/07/25,15:40,0.349,0.217,0.358,0.332,0.322,0.174,0.106,north-northeast,2.6,No
2017/07/25,15:50,0.346,0.216,0.355,0.333,0.321,0.174,0.108,north-northeast,2.7,No
2017/07/25,16:00,0.352,0.213,0.351,0.333,0.318,0.174,0.107,northeast,2.7,No
2017/07/25,16:10,0.349,0.215,0.353,0.329,0.317,0.176,0.106,northeast,2.5,No
2017/07/25,16:20,0.347,0.215,0.358,0.330,0.324,0.175,0.105,northeast,3.3,No
2017/07/25,16:30,0.348,0.215,0.355,0.336,0.321,0.174,0.107,east-northeast,3.1,No
2017/07/25,16:40,0.352,0.213,0.351,0.333,0.318,0.173,0.107,east-northeast,2.2,No
2017/07/25,16:50,0.349,0.215,0.353,0.328,0.319,0.174,0.106,north-northeast,1.9,No
2017/07/25,17:00,0.348,0.215,0.357,0.330,0.322,0.174,0.106,northeast,2.5,No
2017/07/25,17:10,0.351,0.213,0.352,0.334,0.319,0.173,0.107,northeast,2.0,No
2017/07/25,17:20,0.351,0.215,0.352,0.331,0.318,0.173,0.106,north-northeast,1.9,No
2017/07/25,17:30,0.348,0.215,0.357,0.328,0.320,0.174,0.106,north-northeast,1.6,No
2017/07/25,17:40,0.348,0.212,0.356,0.332,0.322,0.174,0.107,north-northeast,1.6,No
2017/07/25,17:50,0.352,0.215,0.350,0.334,0.319,0.174,0.106,north-northeast,2.0,No
2017/07/25,18:00,0.349,0.217,0.355,0.332,0.318,0.174,0.106,north-northeast,2.2,Yes
2017/07/25,18:10,0.348,0.214,0.357,0.331,0.324,0.177,0.109,northeast,4.7,Yes
2017/07/25,18:20,0.354,0.217,0.354,0.336,0.324,0.178,0.111,north-northeast,4.8,Yes
2017/07/25,18:30,0.353,0.221,0.358,0.334,0.320,0.179,0.111,north-northeast,4.7,Yes
2017/07/25,18:40,0.351,0.220,0.360,0.333,0.325,0.182,0.114,north-northeast,2.8,Yes
2017/07/25,18:50,0.357,0.224,0.357,0.340,0.325,0.183,0.116,north,4.2,Yes
2017/07/25,19:00,0.356,0.228,0.362,0.338,0.326,0.184,0.117,north-northeast,4.6,Yes
2017/07/25,19:10,0.356,0.227,0.362,0.336,0.332,0.186,0.119,north-northeast,4.5,Yes
2017/07/25,19:20,0.359,0.229,0.360,0.339,0.329,0.186,0.118,north-northeast,4.1,Yes
2017/07/25,19:30,0.356,0.227,0.363,0.337,0.327,0.184,0.118,north,2.8,Yes
2017/07/25,19:40,0.356,0.226,0.359,0.336,0.330,0.182,0.115,north,3.7,Yes
2017/07/25,19:50,0.355,0.224,0.355,0.338,0.324,0.180,0.114,north,3.9,No
2017/07/25,20:00,0.350,0.221,0.359,0.333,0.323,0.179,0.113,north,3.5,No
2017/07/25,20:10,0.352,0.221,0.357,0.332,0.325,0.178,0.112,north,4.0,Yes
2017/07/25,20:20,0.353,0.221,0.352,0.334,0.320,0.176,0.111,north,4.2,No
2017/07/25,20:30,0.347,0.217,0.355,0.330,0.320,0.176,0.109,north-northeast,4.4,No
2017/07/25,20:40,0.350,0.218,0.352,0.329,0.322,0.176,0.109,north-northeast,4.1,No
2017/07/25,20:50,0.347,0.216,0.350,0.332,0.318,0.174,0.108,north-northeast,4.7,Yes
2017/07/25,21:00,0.345,0.216,0.352,0.328,0.319,0.173,0.109,north,4.4,Yes
2017/07/25,21:10,0.349,0.216,0.351,0.328,0.321,0.173,0.107,north-northeast,5.2,Yes
2017/07/25,21:20,0.346,0.214,0.349,0.329,0.317,0.173,0.107,north,5.2,No
2017/07/25,21:30,0.346,0.214,0.352,0.327,0.319,0.172,0.106,north,4.0,Yes
2017/07/25,21:40,0.346,0.215,0.347,0.326,0.319,0.173,0.106,north,4.8,No
2017/07/25,21:50,0.344,0.213,0.350,0.329,0.315,0.172,0.107,north,4.6,No
2017/07/25,22:00,0.346,0.214,0.352,0.325,0.320,0.172,0.106,north-northeast,4.3,No
2017/07/25,22:10,0.346,0.213,0.348,0.326,0.318,0.171,0.107,north,3.2,No
2017/07/25,22:20,0.344,0.211,0.349,0.327,0.315,0.171,0.106,north,3.1,No
2017/07/25,22:30,0.345,0.213,0.352,0.326,0.319,0.171,0.106,north,3.3,No
2017/07/25,22:40,0.345,0.213,0.347,0.325,0.318,0.171,0.106,north,3.1,No
2017/07/25,22:50,0.343,0.212,0.349,0.328,0.314,0.172,0.106,north,3.5,No
2017/07/25,23:00,0.347,0.214,0.351,0.327,0.320,0.173,0.107,north,5.9,Yes
2017/07/25,23:10,0.348,0.215,0.351,0.331,0.322,0.177,0.111,west,6.7,Yes
2017/07/25,23:20,0.349,0.219,0.357,0.336,0.323,0.182,0.116,east,2.6,Yes
2017/07/25,23:30,0.357,0.226,0.361,0.336,0.331,0.186,0.121,north,6.7,Yes
2017/07/25,23:40,0.359,0.229,0.359,0.341,0.334,0.193,0.125,south-southwest,7.0,Yes
2017/07/25,23:50,0.361,0.234,0.369,0.344,0.334,0.194,0.128,north,1.8,Yes
